星链-31828 (STARLINK-31828 )

导读 | 星芒AI

STARLINK-31828 是 SpaceX Starlink 项目中的一颗低轨道通信卫星,属于第三代 Starlink 卫星(v1.5 或 v2 版本)。该卫星于 2023 年发射,旨在为全球提供高速互联网服务。它运行在约 550 公里的轨道高度,具备先进的通信技术和激光链路,以提升网络性能和减少延迟。作为 Starlink 卫星群的一部分,STARLINK-31828 支持全球范围内的宽带接入,尤其服务于偏远和网络基础设施薄弱的地区。

基本信息
目录编号:
59767
目录名称:
STARLINK-31828
国际标识:
2024-091Q
轨道中心:
EARTH
卫星名称:
星链-31828
卫星全名:
星链-31828 (STARLINK-31828 )
卫星状态:
在轨 (已飞行537 天)
发射日期:
2024-05-14 UTC
国别 :
美国 (US)
星等 :
--
轨道信息
数据来源 国际轨道数据
星历时间: 2025-11-01T22:36:51+0800
19小时前
查看轨道信息
半长轴: 6853.385km
偏心率: 0.0001393
轨道倾角: 53.160°
近地点辐角 85.930°
升交点赤经 261.879°
平近点角 274.186°
近地点: 474.295km
远地点: 476.205km
周期: 94.106分钟
每日圈数: 15.30189
详细信息
固有亮度:
5
最大亮度:
1.5
卫星平台:
Starlink v2.0 mini
覆盖范围:
全球
运营商:
太空探索技术公司
运营商所在国:
美国
制造商(研发单位):
太空探索技术公司
制造商所在国:
美国
使用方式:
暂无
卫星简介
星链(Starlink)计划是由太空探索技术公司(SpaceX)提出的一个巨型低轨卫星互联网星座项目,计划在2019年至2024年间在太空搭建由约1.2万颗卫星组成的“星链”网络,其中1584颗将部署在地球上空550千米处的近地轨道,并从2020年开始工作。该卫星仍在工作。
2D轨道图
3D轨道图
轨道高度分析图
轨道倾角分析图
轨道综合分析图
查看轨道综合分析图